GSAT0214 (GALILEO 18)

Last updated on Thu Oct 30 2025 00:02:35 GMT+0000 (Coordinated Universal Time)

1 41862U 16069D 25301.99896771 .00000068 00000+0 00000+0 0 9992 2 41862 55.3532 107.4849 0000648 320.5166 39.4988 1.70474447 55706
UTC large
Height (km)
Speed (km/s)
/
Latitude / Longitude
Inclination (degrees)
Orbital Period (minutes)
Azimuth
Elevation
Range (km)
Doppler Factor

Next 0 passes for location: London (51.5072 / 0.1276)

Sorry there are no passes over London.